Location: Gwatt
(46.7204°N, 7.6223°E)
Time: 23:59:23
(UTC+00:00)

S-56A Canister/Altair - Pass Details

Date: 26 June 2021
Orbit: 631 x 2501 km, 38.9° (Epoch: 02 August)

Event Time Altitude Azimuth Distance (km) Brightness Sun altitude
Exits shadow 01:20:23 15° 160° (SSE) 1,842 9.1 -15.8°
Maximum altitude 01:20:35 15° 158° (SSE) 1,832 9.1 -15.8°
Drops below altitude 10° 01:23:18 10° 121° (ESE) 2,067 9.7 -15.6°
Sets 01:26:20 0° 98° (E) 2,918 10.8 -15.3°
